Hourly Data Report for September 08, 2001

SHERBROOKE A
QUEBEC

45°26'00.000" N
71°41'00.000" W
241.40 m
7028124
71610
YSC

Download Data

Hourly Data (September 2001)
Hourly Data Report for September 8, 2001
TIME
LST
Temp Definition
°C
Dew Point Definition
°C
Rel Hum Definition
%
Precip. Amount Definition
mm

Wind Dir Definition
10's deg

Wind Spd Definition
km/h
Visibility Definition
km
Stn Press Definition
kPa
Hmdx Definition


Wind Chill Definition


Weather Definition


00:00 11.3 11.0 98     0 15.0 98.63      
01:00 11.5 11.2 98     0 15.0 98.60      
02:00 11.8 11.4 97   9 4 15.0 98.58      
03:00 12.7 12.2 97   8 4 15.0 98.59      
04:00 14.2 13.2 94     0 15.0 98.60      
05:00 14.4 13.9 97     0 15.0 98.67      
06:00 14.8 14.0 95     0 15.0 98.72      
07:00 16.9 14.6 86     0 24.1 98.76     Mostly Cloudy
08:00 20.9 15.8 73   35 4 24.1 98.75 25   Mostly Cloudy
09:00 22.2 16.2 69   24 4 24.1 98.75 27   Mainly Clear
10:00 25.5 18.3 64   24 11 24.1 98.76 32   Mostly Cloudy
11:00 26.4 18.3 61   22 20 19.3 98.76 33   Cloudy
12:00 27.1 19.8 64   22 9 19.3 98.73 35   Mostly Cloudy
13:00 28.6 20.4 61   25 13 16.1 98.71 37   Mainly Clear
14:00 29.3 20.8 60   23 15 19.3 98.68 38   Mainly Clear
15:00 29.5 20.4 58   23 19 19.3 98.64 37   Mainly Clear
16:00 28.5 20.2 61   25 13 19.3 98.67 36   Mainly Clear
17:00 28.1 20.7 64   25 7 9.7 98.68 36    
18:00 25.4 20.2 73   20 6 8.0 98.71 33    
19:00 21.7 19.6 88   15 6 5.6 98.74 29    
20:00 21.3 19.5 89     0 4.8 98.75 28    
21:00 18.9 18.1 95     0 1.3 98.76      
22:00 20.0 18.6 92   22 6 4.8 98.79 26    
23:00 18.0 17.0 94   26 4 3.4 98.85      

Notes on Data Quality.

Legend

  • E = Estimated
  • M = Missing
  • NA = Not Available*
  • [empty] = Indicates an unobserved value
Date modified: